Location: Christchurch
(43.5330°S, 172.6330°E)
Time: 16:52:24
(UTC+12:00)

Cosmos 2278 Rocket - Pass Details

Date: 24 January 2019
Orbit: 841 x 846 km, 71.0° (Epoch: 19 April)

Event Time Altitude Azimuth Distance (km) Brightness Sun altitude
Rises 23:27:56 0° 198° (SSW) 3,437 6.8 -20.2°
Reaches altitude 10° 23:30:45 10° 186° (S) 2,495 5.6 -20.5°
Maximum altitude 23:35:40 29° 127° (SE) 1,528 3.6 -20.9°
Enters shadow 23:38:05 21° 89° (E) 1,802 3.6 -21.2°
